Location: ČR
(50.0000°N, 15.0000°E)
Time: 20:57:41
(UTC+00:00)

Vanguard 3 - Pass Details

Date: 22 October 2021
Orbit: 508 x 3260 km, 33.4° (Epoch: 04 December)

Event Time Altitude Azimuth Distance (km) Brightness Sun altitude
Rises 18:13:05 0° 242° (WSW) 3,953 11.5 -22.8°
Reaches altitude 10° 18:15:43 10° 232° (SW) 3,302 10.8 -23.3°
Maximum altitude 18:23:10 32° 173° (S) 2,783 9.6 -24.4°
Enters shadow 18:27:42 25° 141° (SE) 3,519 9.9 -25.1°
Drops below altitude 10° 18:34:51 10° 119° (ESE) 5,257 - -26.3°
Sets 18:40:24 0° 112° (ESE) 6,663 - -27.1°
